Weather Roundup
Issued by NWS Chicago, IL

Home | Current Version | Previous Version | Graphics & Text | Print | Product List | Glossary On
Versions: 1 2 3 4 5 6 7 8 9 10 11 12 13 14 15 16 17 18 19 20 21 22 23 24 25 26 27 28 29 30 31 32 33 34 35 36 37 38 39 40 41 42 43 44 45 46 47 48 49 50
000
NZUS59 KLOT 261208
HRRLOT

CHICAGO AREA WEATHER ROUNDUP
NATIONAL WEATHER SERVICE CHICAGO/ROMEOVILLE IL
700 AM CDT TUE JUL 26 2016

NOTE: "FAIR" INDICATES FEW OR NO CLOUDS BELOW 12,000 FEET WITH NO
SIGNIFICANT WEATHER AND/OR OBSTRUCTIONS TO VISIBILITY.

* THESE STATIONS ARE NOT UNDER NWS QUALITY CONTROL. THEY ALSO MAY NOT
  REPORT WEATHER SUCH AS PRECIPITATION OR FOG.

ILZ005-006-012>014-019>023-261300-
NORTHEAST ILLINOIS

CITY           SKY/WX    TMP DP  RH WIND       PRES   REMARKS
OHARE          MOSUNNY   74  66  76 NW5       30.07R
6HR MIN TEMP:  69; 6HR MAX TEMP:  76;

MIDWAY         MOSUNNY   76  67  73 CALM      30.06R
6HR MIN TEMP:  73; 6HR MAX TEMP:  78;

AURORA         SUNNY     69  65  86 CALM      30.08R
6HR MIN TEMP:  64; 6HR MAX TEMP:  69;

LANSING*       MOSUNNY   70  65  85 CALM      30.07R
JOLIET*        PTSUNNY   73  69  89 NE3       30.07R
WAUKEGAN       SUNNY     72  65  78 CALM      30.07R
6HR MIN TEMP:  64; 6HR MAX TEMP:  72;

DUPAGE AIRPORT SUNNY     71  66  84 CALM      30.07R
6HR MIN TEMP:  65; 6HR MAX TEMP:  71;

WHEELING       SUNNY     72  65  78 CALM      30.08R
6HR MIN TEMP:  69; 6HR MAX TEMP:  72;

KANKAKEE*      PTSUNNY   69  68  97 CALM      30.07R
MORRIS*        PTSUNNY   68  65  92 CALM      30.05S
LEWIS AIRPORT* MOSUNNY   69  65  87 NE3       30.07S
NORTHERLY ISL    N/A     72  64  76 CALM        N/A
$$

WIZ051-052-058>065-066-070>072-261300-
SOUTHEAST WISCONSIN

CITY           SKY/WX    TMP DP  RH WIND       PRES   REMARKS
MILWAUKEE      MOSUNNY   74  64  71 NW3       30.07R
6HR MIN TEMP:  68; 6HR MAX TEMP:  75;

KENOSHA*       SUNNY     70  64  81 NW5       30.08R
RACINE*        SUNNY     71  63  75 NW6       30.09R
BURLINGTON     SUNNY     64  64  99 CALM      30.08S
WAUKESHA       SUNNY     66  63  88 W5        30.09R
$$

INZ001>003-010>013-019-020-261300-
NORTHWEST INDIANA

CITY           SKY/WX    TMP DP  RH WIND       PRES   REMARKS
GARY*          PTSUNNY   72  72 100 CALM      30.07R
MICHIGAN CITY* NOT AVBL
RENSSELAER*    NOT AVBL
VALPARAISO     PTSUNNY   69  65  86 CALM      30.08R
$$

LMZ740>746-261300-
SOUTHERN LAKE MICHIGAN

STATION/POSITION TIME  SKY/WX   TEMP WIND        PRES    VSBY
                                AIR  DIR/SP/G
                 (UTC)          (F)  (DEG/KT/KT) (MB)    (MI)
HARRISON CRIB    1100            74  360/  2/  2   N/A
BURNHAM HARBOR   1200            72   90/  2/  3   N/A
CALUMET HARBOR   1100            70  330/  1/  1 1017.3R
BURNS HARBOR     1102            72     CALM     1018.3R
MICHIGAN CITY    1100            70  110/  3/  3   N/A
$$

ABBREVIATIONS USED IN REMARKS
   TC - TEMPERATURE IN CELSIUS
  WCI - WIND CHILL INDEX
   HX - HEAT INDEX
  VSB - VISIBILITY
$$




USA.gov is the U.S. government's official web portal to all federal, state and local government web resources and services.